Tracking 19176 objects as of 26-May-2018
HD Live streaming from Space Station
objects crossing your sky now

COSMOS 1287

Track COSMOS 1287 now!
10-day predictions
COSMOS 1287 is classified as:


NORAD ID: 12636
Int'l Code: 1981-074A
Perigee: 1,471.9 km
Apogee: 1,519.1 km
Inclination: 74.0 °
Period: 115.7 minutes
Semi major axis: 7866 km
RCS: 0.667 m2 (medium)
Launch date: August 6, 1981
Source: Commonwealth of Independent States (former USSR) (CIS)
Launch site: PLESETSK MISSILE AND SPACE COMPLEX (PKMTR)
aabbcc
Your satellite tracking list
Your tracking list is empty




NASA's NSSDC Master Catalog

Two Line Element Set (TLE):
1 12636U 81074A   18145.89026966 -.00000012 +00000-0 +25108-4 0  9997
2 12636 074.0318 114.2889 0029979 069.9297 317.9719 12.44311635672411
Source of the keplerian elements: AFSPC